FREGAT DEB, 45835

Orbit data source: Space-Track

FREGAT DEB, 45835 is space debris in LEO originally from a launch on Mon, 18 Jul 2011 UTC launched from the Tyuratam Missile And Space Complex (TTMTR). Debris objects in space refer to the collection of defunct objects orbiting the Earth. Examples of debris include non-operational satellites, rocket bodies, and fragments generated from explosions, collisions, or faulty payload assembly.

Loading next visibility...
Identifier
45835, 2011-037BV
Orbit
LEO
Country
Flag of CISCIS
Related business
Manufacturer
Lavochkin
Mission
Spacecraft
Bus & Motor
Unknown
Mass
Unknown
Launch date (UTC)
2011-07-18 (15 years ago)
Launch vehicle
Unknown
Launch site
Tyuratam Missile And Space Complex (TTMTR)
Object type
Payload
Rocket body
Debris
Shape & HBR
Unknown shape, 0.1 m
Radar Cross Section
Medium (>0.1 m² and <1 m²)

Expand to show TLE details & history
Last TLE update: 2 days ago

TLE from 2 days ago
0 FREGAT DEB
1 45835U 11037BV  26171.44866917  .00013844  00000-0  24835-2 0  9993
2 45835  51.4304 317.8833 1621870 125.7281 250.5537 11.87339232253688
Epoch: 2026-06-20T10:46Z
TLE epoch observation values (Epoch: 2026-06-20T10:46:05.016Z)
Latitude
-0.00003°
Longitude
-112.30077°
Altitude
2,350.148 km
Speed
6.5 km/s
True Right ascension
21h 11m 31s
True Declination
0° 00' 00"
Sunlit
Object was in daylight at epoch
Visualization orbit readout
Latitude
Unknown
Longitude
Unknown
Altitude
Unknown
Speed
Unknown
Apparent Right ascension
Unknown
Apparent Declination
Unknown
Sunlit
N/A
Visualization observer readout
Local Sidereal Time
21:35:23
Azimuth
Unknown
Elevation
Unknown
Doppler factor
Unknown
Orbital elements
Apogee altitude
3,054.939 km
Perigee altitude
422.106 km
Semi-major axis
8,116.66 km
Eccentricity
0.16219
Inclination
51.4304°
RAAN
317.8833°
Arg. of periapsis
125.7281°
True anomaly
234.35544°
Mean anomaly
250.5537°
Eccentric anomaly
242.32424°
Mean motion
2.96809 °/min
Orbital period
121.29 mins
BSTAR
0.0024835
Loading maneuver chart data...
Computing Atmospheric mass density...
Loading historical data...
Loading historical data...
Loading historical data...
Loading historical data...
Loading historical data...
Loading historical data...
Loading historical data...

Documentation

Showing up to 5 results
|